www.pogodaiklimat.ru

Погода и климат >> Архив погоды >> Канарские Острова >> La Palma


ПОГОДА в La Palma

  • Прогноз погоды в La Palma
  • Монитор погоды в La Palma
  • Климат города

АРХИВ ПОГОДЫ в La Palma

Время (UTC), дата Ветер
(напр.,м/с)
 
Видим.   Явления Облачность Т
(С)
Тd
(С)
f
(%)
Тe
(С)
Тes
(С)
Комфортность P
(гПа)
Po
(гПа)
Тmin
(С)
Tmax
(С)
R
(мм)
R24
(мм)
S
(см)
19 19.04 С 9 н/о н/о +19.8 +15.4 76 +21 +21 комфорт 1009.6 1005.9
20 19.04 С 9 н/о н/о +19.7 +15.5 77 +21 +21 комфорт 1009.8 1006.1
21 19.04 СВ 9 н/о н/о +19.7 +15.9 79 1010.3
23 19.04 СВ 6 н/о н/о +19.5 +15.2 76 +21 +21 комфорт 1011.3 1007.6
22 19.04 СВ 7 н/о н/о +19.6 +15.5 77 +21 +21 комфорт 1010.9 1007.2
00 20.04 С 5 н/о н/о +19.3 +14.8 75 +21 +21 комфорт 1011.3 1007.6
01 20.04 С 6 н/о н/о +19.3 +15.0 76 +21 +21 комфорт 1011.0 1007.3
02 20.04 С 5 н/о н/о +19.1 +14.8 76 +20 +20 1010.7 1007.0
03 20.04 С 1 н/о н/о +18.5 +12.7 69 1010.3
05 20.04 ЮЗ 4 н/о н/о +17.2 +11.9 71 +17 +17 1010.0 1006.3
04 20.04 Ю 1 н/о н/о +18.0 +12.9 72 +20 +20 1009.9 1006.2
06 20.04 штиль 0 20 км [макс. диам. градин 0 мм] 1/1 1000 м
[Sc]
+17.6 +11.2 66 +18 +18 1010.6 1006.9 +17.0
07 20.04 СЗ 1 н/о н/о +18.0 +10.8 63 +19 +19 1011.0 1007.3
08 20.04 штиль 0 н/о н/о +19.0 +11.6 62 +20 +20 1011.6 1007.9
09 20.04 штиль 0 20 км 5/5 1000 м
[Sc]
+20.8 +12.6 59 1012.0
11 20.04 СВ 3 н/о н/о +21.2 +13.8 63 +24 +24 комфорт 1012.6 1008.9
10 20.04 В 2 н/о н/о +22.4 +13.1 56 +25 +25 комфорт 1012.1 1008.5
12 20.04 В 3 20 км [макс. диам. градин 0 мм] 5/5 1000 м
[Sc]
+21.8 +13.2 58 +24 +33 комфорт 1012.6 1008.9
13 20.04 В 3 н/о н/о +21.1 +13.2 61 +23 +23 комфорт 1012.6 1008.9
14 20.04 В 3 н/о н/о +21.4 +13.6 61 +24 +24 комфорт 1012.7 1009.0
15 20.04 В 2 30 км 9/9 1000 м
[Cu Sc]
+21.3 +13.7 62 1012.5
17 20.04 В 3 н/о н/о +20.9 +13.7 63 +24 +24 комфорт 1012.2 1008.5
16 20.04 В 3 н/о н/о +20.9 +13.5 63 +24 +24 комфорт 1012.3 1008.6
18 20.04 ЮВ 1 30 км [макс. диам. градин 0 мм] 8/8 1000 м
[Cu Sc]
+21.0 +13.1 61 +25 +25 комфорт 1012.4 1008.7 +22.8
19 20.04 ЮВ 1 н/о н/о +20.6 +13.0 62 +24 +24 комфорт 1012.4 1008.7
20 20.04 ЮВ 1 н/о н/о +20.2 +13.9 67 +23 +23 комфорт 1013.3 1009.6
21 20.04 З 2 н/о н/о +18.9 +13.1 69 1014.1
23 20.04 З 1 н/о н/о +17.7 +12.6 72 +19 +19 1015.1 1011.4
22 20.04 З 2 н/о н/о +18.3 +12.7 70 +19 +19 1014.8 1011.1
00 21.04 ЮЗ 4 н/о н/о +17.5 +12.5 72 +17 +17 1015.1 1011.4
01 21.04 З 1 н/о н/о +16.5 +11.8 74 +17 +17 1015.0 1011.3
02 21.04 З 3 н/о н/о +16.8 +10.9 68 +17 +17 1014.7 1011.0
03 21.04 З 1 н/о н/о +16.5 +10.8 69 1014.3
05 21.04 З 3 н/о н/о +16.4 +10.9 70 +16 +16 1014.3 1010.6
04 21.04 З 2 н/о н/о +16.3 +11.0 71 +16 +16 1014.3 1010.6
06 21.04 З 2 20 км [макс. диам. градин 0 мм] 1/1 600 м
[Sc]
+16.3 +10.8 70 +16 +16 1014.7 1011.0 +16.2
07 21.04 З 2 н/о н/о +16.2 +10.7 70 +16 +16 1015.0 1011.3
08 21.04 штиль 0 н/о н/о +19.7 +11.9 61 +21 +21 комфорт 1015.7 1012.0
09 21.04 СВ 1 20 км 1/1 600 м
[Cu Sc]
+21.2 +12.4 57 1016.1
11 21.04 СВ 5 н/о н/о +22.3 +15.5 65 +26 +26 жарко 1017.0 1013.3
10 21.04 СВ 4 н/о н/о +21.5 +15.3 68 +25 +25 комфорт 1016.7 1013.0
12 21.04 СВ 4 20 км [макс. диам. градин 0 мм] 4/4 600 м
[Cu Sc]
+21.7 +15.1 66 +25 +33 комфорт 1017.2 1013.5
13 21.04 СВ 5 н/о н/о +21.5 +15.3 68 +25 +25 комфорт 1017.0 1013.3
14 21.04 СВ 6 н/о н/о +21.0 +15.8 72 +24 +24 комфорт 1016.8 1013.1
15 21.04 СВ 6 30 км 8/8 600 м
[Cu Sc]
+20.6 +15.5 73 1016.8
17 21.04 СВ 6 н/о н/о +20.5 +15.6 73 +23 +23 комфорт 1016.7 1013.0
16 21.04 СВ 6 н/о н/о +20.6 +16.1 75 +24 +24 комфорт 1016.7 1013.0
18 21.04 СВ 6 30 км [макс. диам. градин 0 мм] 3/3 600 м
[Cu Sc Ci sp]
+20.1 +15.0 72 +22 +23 комфорт 1016.8 1013.1 +22.4
19 21.04 СВ 7 н/о н/о +19.8 +15.4 76 +22 +22 комфорт 1017.0 1013.3
20 21.04 С 7 н/о н/о +19.6 +15.2 76 +21 +21 комфорт 1017.4 1013.7
21 21.04 С 5 н/о н/о +19.2 +14.1 72 1017.8
23 21.04 СЗ 1 н/о н/о +18.4 +12.2 67 +20 +20 1018.7 1015.0
22 21.04 СЗ 3 н/о н/о +18.8 +13.2 70 +20 +20 1018.5 1014.8
00 22.04 СЗ 1 н/о н/о +18.5 +12.8 69 +20 +20 1018.7 1015.0
01 22.04 СВ 1 н/о н/о +18.8 +13.2 70 +21 +21 комфорт 1018.6 1014.9
02 22.04 З 1 н/о н/о +17.7 +11.7 68 +19 +19 1017.7 1014.0
03 22.04 З 1 н/о н/о +17.9 +10.8 63 1017.3
05 22.04 С 4 н/о н/о +18.4 +12.1 67 +19 +19 1017.1 1013.4
04 22.04 СЗ 1 н/о н/о +17.8 +11.4 66 +19 +19 1017.0 1013.3
06 22.04 С 3 25 км [макс. диам. градин 0 мм] 3/1 600 м
[Cu Sc Cs]
+18.2 +13.1 72 +19 +19 1017.4 1013.7 +16.9
07 22.04 СЗ 2 н/о н/о +18.1 +12.0 68 +19 +19 1017.9 1014.2
08 22.04 С 2 н/о н/о +19.9 +13.0 64 +22 +22 комфорт 1018.4 1014.7
09 22.04 СВ 7 35 км 3/1 600 м
[Cu Sc Cs]
+20.9 +14.8 68 1018.5
11 22.04 С 4 н/о н/о +21.3 +15.1 68 +24 +24 комфорт 1019.5 1015.8
10 22.04 С 6 н/о н/о +22.1 +15.3 65 +26 +26 душно 1019.0 1015.3
12 22.04 С 3 40 км [макс. диам. градин 0 мм] 6/4 600 м
[Cu Sc Cs]
+21.7 +15.0 66 +25 +34 комфорт 1019.1 1015.4
13 22.04 С 3 н/о н/о +23.3 +15.3 61 +28 +28 душно 1018.4 1014.7
14 22.04 С 4 н/о н/о +22.4 +15.2 64 +26 +26 жарко 1017.9 1014.2
15 22.04 СВ 4 >70 км 3/1 1000 м
[Cu Sc Ci fib]
+22.1 +15.4 66 1017.4
17 22.04 С 4 н/о н/о +21.4 +15.8 70 +25 +25 комфорт 1016.8 1013.1
16 22.04 С 4 н/о н/о +21.9 +15.6 67 +26 +26 душно 1017.0 1013.3
18 22.04 СВ 6 >70 км [макс. диам. градин 0 мм] 5/3 600 м
[Cu Sc Ci sp]
+20.6 +16.1 75 +24 +24 комфорт 1016.7 1013.0 +23.5
19 22.04 СВ 6 н/о н/о +20.2 +15.4 74 +22 +22 комфорт 1017.2 1013.5
20 22.04 СВ 7 н/о н/о +19.9 +15.3 75 +22 +22 комфорт 1017.6 1013.9
21 22.04 СВ 7 н/о н/о +19.6 +14.8 74 1018.0
23 22.04 СЗ 2 н/о н/о +19.3 +13.1 67 +21 +21 комфорт 1018.7 1015.0
22 22.04 С 5 н/о н/о +19.6 +15.1 75 +21 +21 комфорт 1018.4 1014.7
00 23.04 С 4 н/о н/о +19.3 +14.2 72 +21 +21 комфорт 1018.6 1014.9
01 23.04 С 3 н/о н/о +19.0 +14.0 73 +20 +20 1018.2 1014.5
02 23.04 С 4 н/о н/о +19.0 +14.5 75 +20 +20 1018.0 1014.3
03 23.04 З 2 н/о н/о +18.5 +12.9 70 1017.4
05 23.04 СЗ 2 н/о н/о +18.1 +13.7 75 +19 +19 1016.9 1013.2
04 23.04 СЗ 2 н/о н/о +18.2 +13.1 72 +19 +19 1016.9 1013.2
06 23.04 СЗ 3 25 км [макс. диам. градин 0 мм] 4/4 600 м
[Sc]
+17.9 +12.9 73 +18 +18 1017.0 1013.3 +17.6
07 23.04 З 2 30 км ясно +17.7 +13.0 74 +18 +19 1017.0 1013.3
08 23.04 СЗ 2 н/о н/о +19.6 +13.6 68 +22 +22 комфорт 1017.8 1014.1
09 23.04 С 4 30 км ясно +21.7 +14.7 64 1018.1
11 23.04 С 4 н/о н/о +22.4 +14.3 60 +26 +26 жарко 1018.5 1014.8
10 23.04 СВ 5 н/о н/о +22.1 +15.1 65 +26 +26 душно 1018.2 1014.5
12 23.04 С 2 30 км [макс. диам. градин 0 мм] ясно +23.2 +14.5 58 +27 +46 душно 1018.4 1014.7
13 23.04 СВ 4 30 км 1/1
[Sc]
+23.2 +14.9 60 +27 +41 душно 1018.0 1014.3
14 23.04 СВ 4 н/о н/о +22.7 +15.4 63 +27 +27 душно 1017.5 1013.8
15 23.04 С 4 30 км 1/1 600 м
[Sc]
+22.7 +15.1 62 1016.9
17 23.04 С 4 н/о н/о +21.6 +15.6 69 +25 +25 комфорт 1016.2 1012.5
16 23.04 СВ 4 н/о н/о +22.1 +15.0 64 +26 +26 душно 1016.5 1012.8
18 23.04 С 4 30 км [макс. диам. градин 0 мм] 1/1
[Sc]
+21.1 +15.7 71 +24 +26 комфорт 1016.2 1012.5 +23.5
19 23.04 СВ 3 н/о н/о +20.5 +15.7 74 +24 +24 комфорт 1016.9 1013.2
20 23.04 СВ 4 н/о н/о +20.4 +16.0 76 +24 +24 комфорт 1017.4 1013.7
21 23.04 С 4 н/о н/о +20.1 +15.9 77 1018.0
23 23.04 ЮЗ 1 н/о н/о +19.0 +14.3 74 +21 +21 комфорт 1018.8 1015.1
22 23.04 С 3 н/о н/о +19.7 +15.2 75 +22 +22 комфорт 1018.8 1015.1
00 24.04 З 1 н/о н/о +18.4 +13.9 75 +20 +20 1018.4 1014.7
01 24.04 штиль 0 н/о н/о +18.4 +13.5 73 +19 +19 1017.7 1014.0
02 24.04 З 1 н/о н/о +18.4 +13.6 74 +20 +20 1017.2 1013.5
03 24.04 З 1 н/о н/о +18.5 +13.4 72 1016.6
05 24.04 З 3 н/о н/о +18.8 +13.9 73 +20 +20 1015.6 1011.9
04 24.04 З 1 н/о н/о +18.1 +13.2 73 +19 +19 1015.8 1012.1
06 24.04 З 1 30 км [макс. диам. градин 0 мм] 6/1 600 м
[Cu Sc Cs]
+18.3 +13.2 72 +20 +20 1015.7 1012.0 +17.6
07 24.04 З 1 н/о н/о +18.1 +13.4 74 +19 +19 1016.2 1012.5
08 24.04 С 1 н/о н/о +21.1 +14.3 65 +24 +24 комфорт 1016.9 1013.2
09 24.04 С 2 35 км 4/1 600 м
[Cu med, cong Cs]
+22.6 +17.0 71 1017.1
11 24.04 СВ 3 н/о н/о +23.2 +17.3 69 +28 +28 душно 1017.3 1013.6
10 24.04 СВ 2 н/о н/о +22.8 +17.3 71 +28 +28 душно 1017.4 1013.7
12 24.04 СВ 2 40 км [макс. диам. градин 0 мм] 3/1 600 м
[Cu Sc Cs]
+22.3 +17.1 72 +27 +43 душно 1017.1 1013.4
13 24.04 СВ 2 н/о н/о +22.2 +17.1 73 +27 +27 душно 1016.5 1012.8
14 24.04 В 2 н/о н/о +21.8 +16.8 73 +26 +26 душно 1016.0 1012.3
15 24.04 В 2 30 км 6/6 300 м
[Cu Sc]
+21.9 +16.8 73 1015.8
17 24.04 В 1 н/о н/о +21.4 +16.5 74 +25 +25 комфорт 1014.8 1011.1
16 24.04 В 1 н/о н/о +21.4 +16.6 74 +25 +25 комфорт 1015.1 1011.4
18 24.04 В 1 50 км [макс. диам. градин 0 мм] 6/6 600 м
[Cu Sc]
+21.0 +16.6 76 +26 +27 душно 1014.8 1011.1 +23.4
19 24.04 СВ 1 н/о н/о +20.9 +16.5 76 +26 +26 душно 1014.9 1011.2
20 24.04 штиль 0 н/о н/о +20.6 +16.4 77 +24 +24 комфорт 1015.3 1011.6
21 24.04 штиль 0 н/о н/о +20.4 +16.4 78 1015.5
23 24.04 З 2 н/о н/о +19.2 +15.3 78 +21 +21 комфорт 1016.0 1012.3
22 24.04 штиль 0 н/о н/о +19.7 +16.2 80 +22 +22 комфорт 1015.7 1012.0
00 25.04 З 2 н/о н/о +18.8 +14.5 76 +20 +20 1015.6 1011.9
01 25.04 З 2 н/о н/о +18.4 +14.5 78 +19 +19 1015.2 1011.5
02 25.04 З 3 н/о н/о +18.3 +14.6 79 +19 +19 1014.6 1010.9
03 25.04 З 3 н/о н/о +18.2 +13.1 72 1013.9
05 25.04 З 4 н/о н/о +17.6 +12.5 72 +17 +17 1013.1 1009.4
04 25.04 З 3 н/о н/о +17.9 +12.6 71 +18 +18 1013.2 1009.5
06 25.04 З 3 20 км [макс. диам. градин 0 мм] 1/1 600 м
[Cu Sc]
+17.7 +13.4 76 +18 +18 1012.8 1009.1 +17.6
07 25.04 ЮЗ 3 н/о н/о +18.1 +12.8 71 +18 +18 1013.0 1009.3
08 25.04 ЮВ 1 н/о н/о +20.5 +15.7 74 +25 +25 комфорт 1013.4 1009.7
09 25.04 ЮВ 2 20 км 4/4 600 м
[Cu Sc]
+22.0 +16.3 70 1013.7
11 25.04 Ю 7 н/о н/о +22.5 +16.9 71 +27 +27 душно 1012.9 1009.3
10 25.04 ЮВ 4 н/о н/о +21.9 +16.8 73 +26 +26 душно 1013.4 1009.7
12 25.04 ЮВ 8 20 км [макс. диам. градин 0 мм] 3/3 600 м
[Cu Sc]
+22.0 +17.3 75 +26 +29 душно 1012.7 1009.0
13 25.04 ЮВ 8 н/о н/о +23.0 +17.6 72 +28 +28 душно 1012.4 1008.8
14 25.04 ЮВ 8 н/о н/о +22.1 +17.2 74 +27 +27 душно 1011.9 1008.3
15 25.04 ЮВ 9 30 км 1/1 600 м
[Cu Sc]
+22.3 +17.5 74 1011.3
17 25.04 С 3 н/о н/о +23.3 +16.8 67 +28 +28 душно 1010.7 1007.1
16 25.04 С 5 н/о н/о +24.2 +16.8 63 +28 +28 душно 1010.8 1007.2
18 25.04 В 2 30 км [макс. диам. градин 0 мм] 1/1 1000 м
[Cu Sc]
+22.4 +16.9 71 +27 +30 душно 1010.6 1007.0 +24.8
19 25.04 С 4 н/о н/о +22.8 +16.3 67 +27 +27 душно 1010.6 1007.0
20 25.04 С 4 н/о н/о +21.5 +16.9 75 +25 +25 комфорт 1010.8 1007.1
21 25.04 СВ 5 н/о н/о +21.6 +16.3 72 1011.2
23 25.04 Ю 6 н/о н/о +21.8 +17.0 74 +26 +26 душно 1011.5 1007.9
22 25.04 С 2 н/о н/о +21.7 +15.5 68 +25 +25 комфорт 1011.7 1008.0
00 26.04 Ю 6 н/о н/о +21.7 +17.3 76 +26 +26 душно 1010.7 1007.1
01 26.04 Ю 8 н/о н/о +21.2 +17.8 81 +25 +25 комфорт 1010.3 1006.6
02 26.04 Ю 8 н/о н/о +20.9 +18.3 85 +25 +25 комфорт 1009.8 1006.1
03 26.04 Ю 7 н/о н/о +20.9 +18.3 85 1009.3
05 26.04 Ю 4 н/о осадки н/о +20.5 +18.4 88 +24 +24 комфорт 1008.3 1004.6
04 26.04 Ю 7 н/о в посл. час осадки н/о +20.6 +18.5 88 +24 +24 комфорт 1008.8 1005.1
06 26.04 Ю 9 20 км в посл. час дождь 8/5 1000 м
[Cu Sc Ac lent Ci fib]
+20.3 +19.0 92 +23 +23 комфорт 1008.3 1004.6 +20.2 2
07 26.04 Ю 11 н/о осадки н/о +20.4 +19.1 92 +23 +23 комфорт 1008.3 1004.6
08 26.04 Ю 6 н/о осадки н/о +20.8 +18.0 84 +25 +25 комфорт 1008.6 1005.0
09 26.04 Ю 5 30 км {дождь} 4/4 1000 м
[Cu Sc]
+23.0 +16.7 68 1009.1
11 26.04 Ю 10 н/о в посл. час осадки н/о +22.4 +19.1 82 +28 +28 душно 1009.2 1005.6
10 26.04 Ю 10 н/о в посл. час осадки н/о +22.6 +19.4 82 +29 +29 очень
душно
1009.1 1005.5
12 26.04 Ю 9 20 км {дождь} [макс. диам. градин 0 мм] 5/5 600 м
[Cu Sc]
+22.9 +19.0 79 +29 +30 очень
душно
1008.9 1005.3 2
13 26.04 Ю 10 н/о н/о +22.5 +19.3 82 +28 +28 душно 1008.7 1005.1
14 26.04 Ю 8 н/о в посл. час осадки н/о +22.4 +19.5 84 +28 +28 душно 1008.6 1005.0
15 26.04 Ю 7 20 км слабый ливневой дождь [макс. диам. градин 0 мм] 8/8 300 м
[Cu Sc]
+22.1 +19.3 84 +28 +29 душно 1008.2 1004.6
17 26.04 Ю 8 н/о н/о +22.5 +19.1 81 +28 +28 душно 1007.6 1004.0
16 26.04 Ю 7 н/о в посл. час осадки н/о +21.8 +19.5 87 +27 +27 душно 1007.8 1004.2
18 26.04 Ю 6 30 км {ливн. осадки, дождь} [макс. диам. градин 0 мм] 4/4 600 м
[Cu Sc]
+23.0 +17.5 71 +28 +29 душно 1007.5 1003.9 +23.9 2

 

Местоположение метеостанции La Palma (Канарские Острова): широта 28.62 долгота -17.75 высота над уровнем моря 31 м.

В архиве по умолчанию представлена погода в La Palma за последнюю неделю. Архивные данные за месяц целиком и за предыдущие месяцы, начиная с января 2011 года, Вы можете получить, выбрав интересующий диапазон дат из раскрывающегося списка и нажав кнопку "Ввод!".

Внимание! Время в таблицах - всемирное. Для получения местного времени необходимо прибавить поправку, которая в La Palma равна 0 ч.

Смотрите также архив погоды в соседних городах и на ближайших метеорологических станциях:

Погода в La Gomera (Канарские Острова) (84 км)
Погода в Jijel Port (Алжир) (84 км)
Погода в Hierro (Канарские Острова) (90 км)
Погода в Izana (Канарские Острова) (127 км)
Погода в Tenerife Sur (Канарские Острова) (133 км)
Погода в Tenerife (Канарские Острова) (142 км)
Погода в Sta. Cruz De Teneri (Канарские Острова) (148 км)
Погода в Las Palmas (Канарские Острова) (245 км)
Погода в Fuerteventura (Канарские Острова) (381 км)
Погода в Lanzarote (Канарские Острова) (406 км)

Пояснения к столбцам:

Ветер - указаны скорость ветра в м/с - средняя за 10 мин, порывы в срок и между сроками (в фигурных скобках) и направление, откуда дует ветер: С - северный, СВ - северо-восточный, В - восточный, ЮВ - юго-восточный, Ю - южный, ЮЗ - юго-западный, З - западный, СЗ - северо-западный.
Видимость - горизонтальная дальность видимости в метрах или километрах. При видимости от 1 до 10 км при отсутствии осадков обычно наблюдается дымка, при ухудшении видимости до 1 км и менее - туман. В сухую погоду видимость может ухудшаться дымом, пылью или мглою.
Явления - указаны атмосферные явления, наблюдавшиеся в срок или в последний час перед сроком; фигурными скобками обозначены явления, наблюдавшиеся между сроками (за 1-3 часа до срока); квадратными скобками обозначены град или гололедные отложения с указанием их диаметра в мм.
Облачность - указаны через наклонную черту общая и нижняя облачность в баллах и высота нижней границы облаков в метрах; квадратными скобками обозначены формы облаков: Ci - перистые, Cs - перисто-слоистые, Cc - перисто-кучевые, Ac - высококучевые, As - высокослоистые, Sc - слоисто-кучевые, Ns - слоисто-дождевые, Cu - кучевые, Cb - кучево-дождевые. Подробнее классификацию облаков см. в Атласе облаков (PDF).
T - Температура воздуха - температура, измеренная на высоте 2 м над землей.
Td - Температура точки росы - температура, при понижении до которой содержащийся в воздухе водяной пар достигнет насыщения.
f - Относительная влажность воздуха - влажноcть воздуха, измеренная на высоте 2 м над землей.
Te - Эффективная температура - температура, которую ощущает одетый по сезону человек в тени. Характеристика душности погоды. При расчете учитывается влияние влажности воздуха и скорости ветра на теплоощущения человека.
Tes - Эффективная температура на солнце - температура, которую ощущает человек, с поправкой на солнечный нагрев. Характеристика знойности погоды. Зависит от высоты солнца над горизонтом, облачности и скорости ветра. Ночью, в пасмурную погоду, а также при ветре 12 м/с и более поправка равна нулю.
P - Атмосферное давление - приведенное к уровню моря атмосферное давление.
Po - Атмосферное давление - измеренное на уровне метеостанции атмосферное давление.
Tmin - Минимальная температура - минимум температуры воздуха на высоте 2 м над землей.
Tmax - Максимальная температура - максимум температуры воздуха на высоте 2 м над землей.
R - Количество осадков - Количество выпавших осадков за период времени, мм. При наведении курсора мыши на число - период времени, за который выпало указанное количество осадков.
R24 - Количество осадков - Количество выпавших осадков за 24 часа, мм.
S - Снежный покров - Высота снежного покрова, см. При наведении курсора мыши на число - состояние снежного покрова и степень покрытия местности в баллах.